Flag for Trinidad and Tobago Weather past 2 weeks in Scarborough, Trinidad and Tobago

Now
86 °F

Passing clouds.


Feels Like: 92 °F
Forecast: 76 / 86 °F
Wind: 14 mph from East

Location: Crown Pt./ Scarborou

Current Time: Dec 26, 2014 at 11:56:58 AM

Latest Report: Dec 26, 2014 at 11:00 AM


Visibility: N/A

Pressure: 30.01 "Hg

Humidity: 62%

Dew point: 72 °F

Location of ScarboroughLocation

Historic Weather in Scarborough — Graph

°F

Scarborough temperature yesterday

Maximum temperature yesterday: 88 °F (at 1:00 PM)
Minimum temperature yesterday: 75 °F (at 3:00 AM)
Average temperature yesterday: 80 °F

Past Weeks' High & Low Weather Summary

 TemperatureHumidityPressure
High90 °F (Dec 17, 2:00 PM)100% (Dec 22, 8:00 PM)30.01 "Hg (Dec 22, 8:00 PM)
Low73 °F (Dec 13, 5:00 AM)59% (Dec 12, 12:00 PM)29.83 "Hg (Dec 13, 5:00 PM)
Average80 °F78%29.93 "Hg
* Reported Dec 11 10:00 AM — Dec 26 10:00 AM, Scarborough, Weather by CustomWeather, © 2014

Note: Actual official high and low records may vary slightly from our data, if they occured in-between our weather recording intervals... More about our weather records

Advertising

Scarborough weather history for previous 24 hours

 ConditionsComfort  
Time TempWeatherWind HumidityBarometerVisibility
10:00 AM
Dec 26
84 °FPassing clouds.16 mph66%30.01 "HgN/A
9:00 AM84 °FPassing clouds.10 mph66%30.01 "HgN/A
8:00 AM81 °FPassing clouds.3 mph84%29.98 "HgN/A
7:00 AM75 °FPassing clouds.No wind83%29.98 "HgN/A
6:00 AM75 °FPassing clouds.No wind83%29.95 "HgN/A
2:00 AM77 °FPassing clouds.No wind79%29.95 "HgN/A
1:00 AM77 °FPassing clouds.No wind79%29.95 "HgN/A
12:00 AM77 °FPassing clouds.No wind83%29.98 "HgN/A
11:00 PM
Dec 25
79 °FPassing clouds.No wind79%29.98 "HgN/A
10:00 PM79 °FScattered showers. Passing clouds.6 mph79%29.98 "HgN/A
9:00 PM79 °FScattered showers. Partly cloudy.No wind79%29.98 "Hg4 mi
8:00 PM79 °FScattered showers. Passing clouds.No wind84%29.98 "HgN/A
7:00 PM79 °FPassing clouds.No wind79%29.95 "HgN/A
6:00 PM82 °FPassing clouds.7 mph70%29.95 "HgN/A
5:00 PM84 °FScattered clouds.7 mph66%29.92 "HgN/A
4:00 PM86 °FScattered clouds.12 mph66%29.92 "HgN/A
3:00 PM88 °FPassing clouds.12 mph59%29.92 "HgN/A
2:00 PM86 °FPassing clouds.12 mph62%29.95 "HgN/A
1:00 PM88 °FPassing clouds.12 mph59%29.98 "HgN/A
12:00 PM86 °FPassing clouds.12 mph66%29.98 "HgN/A
11:00 AM84 °FScattered clouds.6 mph70%30.01 "HgN/A
Weather by CustomWeather, © 2014

See weather overviewHow to use our weather pages